SM4IVE-5 Weather Reports


Display with metric or nautical units.
time (UTC)temp
F
wind
direction
speed
MPH
gust
MPH
rain 1hr
in
rain 24hr
in
rain mn
in
humidity
%
barometer
mb
20260906005328 47 360 0.0 0.0 0.00 0.00 0.00 93 1009.8
20260906004829 47 360 0.0 0.0 0.00 0.00 0.00 93 1009.7
20260906004330 48 360 0.0 1.0 0.00 0.00 0.00 93 1009.6
20260906003831 48 360 0.0 1.0 0.00 0.00 0.00 93 1009.5
20260906003348 48 360 0.0 0.0 0.00 0.00 0.00 93 1009.5
20260906002835 48 360 0.0 1.0 0.00 0.00 0.00 93 1009.5
20260906002328 48 360 0.0 1.0 0.00 0.00 0.00 93 1009.5
20260906001829 48 360 0.0 0.0 0.00 0.00 0.00 93 1009.4
20260906001330 48 360 0.0 0.0 0.00 0.00 0.00 93 1009.4
20260906000825 48 360 0.0 0.0 0.00 0.00 0.00 93 1009.3
20260906000326 48 360 0.0 1.0 0.00 0.00 0.00 93 1009.2
20260905235826 49 360 0.0 2.0 0.00 0.00 0.00 93 1009.1
20260905235326 49 360 0.0 2.0 0.00 0.00 0.00 93 1009.0
20260905234833 49 360 1.0 3.0 0.00 0.00 0.00 93 1009.0
20260905234342 49 360 1.0 3.0 0.00 0.00 0.00 93 1008.9
20260905233829 49 360 1.0 2.0 0.00 0.00 0.00 92 1008.8
20260905233358 49 360 0.0 2.0 0.00 0.00 0.00 92 1008.7
20260905232825 49 360 1.0 2.0 0.00 0.00 0.00 92 1008.7
20260905232326 49 360 1.0 2.0 0.00 0.00 0.00 92 1008.7
20260905231825 49 360 0.0 1.0 0.00 0.00 0.00 92 1008.6
20260905231326 50 360 0.0 1.0 0.00 0.00 0.00 92 1008.5
20260905230828 50 360 0.0 0.0 0.00 0.00 0.00 92 1008.5
20260905230327 50 360 0.0 1.0 0.00 0.00 0.00 92 1008.4
20260905225847 50 360 0.0 3.0 0.00 0.00 0.00 93 1008.3
20260905225354 51 360 0.0 3.0 0.00 0.00 0.00 93 1008.3
20260905224842 51 360 1.0 3.0 0.00 0.00 0.00 93 1008.2
20260905224331 51 360 1.0 4.0 0.00 0.00 0.00 93 1008.2
20260905223841 51 360 2.0 4.0 0.00 0.00 0.00 93 1008.2
20260905223327 51 360 2.0 4.0 0.00 0.00 0.00 93 1008.1
20260905222826 51 360 2.0 5.0 0.00 0.00 0.00 93 1008.0
20260905222353 51 360 1.0 5.0 0.00 0.00 0.00 93 1007.9
20260905221840 51 360 1.0 4.0 0.00 0.00 0.00 93 1007.9
20260905221329 51 360 2.0 4.0 0.00 0.00 0.00 93 1007.8
20260905220835 51 360 2.0 5.0 0.00 0.00 0.00 93 1007.7
20260905220402 51 360 2.0 5.0 0.00 0.00 0.00 93 1007.7
20260905215827 51 360 2.0 3.0 0.00 0.00 0.00 93 1007.6
20260905215353 51 360 1.0 4.0 0.00 0.00 0.00 93 1007.6
20260905214830 51 360 1.0 3.0 0.00 0.00 0.00 93 1007.5
20260905214330 51 360 1.0 3.0 0.00 0.00 0.00 93 1007.4
20260905213850 51 360 1.0 3.0 0.00 0.00 0.00 93 1007.3
20260905213350 51 360 1.0 2.0 0.00 0.00 0.00 93 1007.3
20260905212829 51 360 1.0 3.0 0.00 0.00 0.00 93 1007.2
20260905212330 51 360 1.0 3.0 0.00 0.00 0.00 93 1007.1
20260905211830 51 360 1.0 3.0 0.00 0.00 0.00 93 1007.1
20260905211400 51 360 0.0 2.0 0.00 0.00 0.00 93 1007.0
20260905210828 51 360 1.0 2.0 0.00 0.00 0.00 93 1006.9
20260905210330 51 360 1.0 3.0 0.00 0.00 0.00 93 1006.8
20260905205839 51 360 1.0 3.0 0.00 0.00 0.00 93 1006.7
20260905205328 51 360 1.0 3.0 0.00 0.00 0.00 92 1006.6
20260905204830 51 360 1.0 3.0 0.00 0.00 0.00 92 1006.5
20260905204331 52 360 0.0 4.0 0.00 0.00 0.00 92 1006.4
20260905203839 52 360 1.0 4.0 0.00 0.00 0.00 92 1006.3
20260905203328 52 360 1.0 3.0 0.00 0.00 0.00 92 1006.2
20260905202829 52 360 0.0 3.0 0.00 0.00 0.00 92 1006.2
20260905202329 52 360 1.0 3.0 0.00 0.00 0.00 92 1006.0
20260905201830 52 360 1.0 4.0 0.00 0.00 0.00 92 1005.9
20260905201337 52 360 2.0 4.0 0.00 0.00 0.00 92 1005.9
20260905200846 52 360 2.0 3.0 0.00 0.00 0.00 91 1005.8
20260905200331 52 360 1.0 3.0 0.00 0.00 0.00 91 1005.8
20260905195832 52 360 0.0 2.0 0.00 0.00 0.00 92 1005.7
20260905195332 52 360 0.0 1.0 0.00 0.00 0.00 92 1005.6
20260905194853 52 360 0.0 2.0 0.00 0.00 0.00 92 1005.6
20260905194332 53 281 0.0 3.0 0.00 0.00 0.00 92 1005.4
20260905193832 53 360 1.0 3.0 0.00 0.00 0.00 92 1005.4
20260905193333 53 360 1.0 3.0 0.00 0.00 0.00 91 1005.4
20260905192840 53 360 1.0 3.0 0.00 0.00 0.00 92 1005.2
20260905192329 53 360 2.0 3.0 0.00 0.00 0.00 92 1005.3
20260905191850 53 360 1.0 3.0 0.00 0.00 0.00 92 1005.2
20260905191330 53 360 1.0 3.0 0.00 0.00 0.00 91 1005.2
20260905190832 53 360 1.0 3.0 0.00 0.00 0.00 91 1005.1
20260905190352 53 360 1.0 4.0 0.00 0.00 0.00 91 1005.1
20260905185833 53 360 1.0 4.0 0.00 0.00 0.00 91 1005.0
20260905185401 53 360 0.0 3.0 0.00 0.00 0.00 91 1005.0
20260905184828 53 360 1.0 3.0 0.00 0.00 0.00 90 1004.9
20260905184329 53 360 0.0 2.0 0.00 0.00 0.00 90 1004.9
20260905183830 53 234 0.0 1.0 0.00 0.00 0.00 90 1004.7
20260905183330 53 234 0.0 1.0 0.00 0.00 0.00 90 1004.7
20260905182832 54 236 0.0 1.0 0.00 0.00 0.00 89 1004.6
20260905182332 54 360 0.0 1.0 0.00 0.00 0.00 89 1004.6
20260905181856 54 360 0.0 0.0 0.00 0.00 0.00 89 1004.5
20260905181328 54 360 0.0 1.0 0.00 0.00 0.00 88 1004.4
20260905180837 55 360 0.0 1.0 0.00 0.00 0.00 88 1004.4
20260905180326 55 360 0.0 1.0 0.00 0.00 0.00 88 1004.3
20260905175836 55 360 0.0 1.0 0.00 0.00 0.00 88 1004.2
20260905175346 55 360 1.0 1.0 0.00 0.00 0.00 88 1004.1
20260905174854 56 360 0.0 2.0 0.00 0.00 0.00 88 1004.0
20260905174325 56 360 0.0 2.0 0.00 0.00 0.00 88 1004.0
20260905173846 56 360 0.0 0.0 0.00 0.00 0.00 88 1003.9
20260905173354 57 360 0.0 0.0 0.00 0.00 0.00 88 1003.8
20260905172840 57 360 0.0 1.0 0.00 0.00 0.00 88 1003.7
20260905172348 57 360 0.0 1.0 0.00 0.00 0.00 88 1003.7
20260905171827 57 360 0.0 1.0 0.00 0.00 0.00 88 1003.6
20260905171328 57 360 0.0 1.0 0.00 0.00 0.00 88 1003.6
20260905170828 57 360 0.0 1.0 0.00 0.00 0.00 88 1003.5
20260905170328 57 360 0.0 1.0 0.00 0.00 0.00 88 1003.4
20260905165835 57 360 0.0 1.0 0.00 0.00 0.00 87 1003.4
20260905165324 57 360 0.0 1.0 0.00 0.00 0.00 87 1003.3
20260905164825 57 360 0.0 1.0 0.00 0.00 0.00 87 1003.3
20260905164326 57 360 0.0 1.0 0.00 0.00 0.00 86 1003.2
20260905163835 57 360 0.0 2.0 0.00 0.00 0.00 86 1003.2
20260905163344 57 360 0.0 2.0 0.00 0.00 0.00 87 1003.1
20260905162826 57 360 0.0 1.0 0.00 0.00 0.00 87 1003.1
20260905162334 58 360 0.0 1.0 0.00 0.00 0.00 86 1003.0
20260905161842 58 360 0.0 1.0 0.00 0.00 0.00 85 1003.0
20260905161333 58 360 0.0 1.0 0.00 0.00 0.00 85 1002.9
20260905160841 58 360 0.0 2.0 0.00 0.00 0.00 85 1002.9
20260905160329 58 360 1.0 2.0 0.00 0.00 0.00 85 1002.9
20260905155836 58 360 0.0 1.0 0.00 0.00 0.00 85 1002.8
20260905155325 58 360 0.0 3.0 0.00 0.00 0.00 85 1002.8
20260905154826 59 360 0.0 3.0 0.00 0.00 0.00 85 1002.8
20260905154328 59 360 0.0 3.0 0.00 0.00 0.00 85 1002.7
20260905153828 59 360 1.0 3.0 0.00 0.00 0.00 85 1002.7
20260905153349 59 360 1.0 5.0 0.00 0.00 0.00 85 1002.6
20260905152835 59 360 1.0 5.0 0.00 0.00 0.00 84 1002.5
20260905152325 60 360 1.0 3.0 0.00 0.00 0.00 85 1002.4
20260905151844 60 360 1.0 3.0 0.00 0.00 0.00 85 1002.4
20260905151325 60 360 1.0 4.0 0.00 0.00 0.00 85 1002.3
20260905150845 60 360 2.0 4.0 0.00 0.00 0.00 84 1002.4
20260905150326 60 360 1.0 3.0 0.00 0.00 0.00 85 1002.3
20260905145827 61 360 1.0 3.0 0.00 0.00 0.00 84 1002.2
20260905145327 61 360 1.0 2.0 0.00 0.00 0.00 84 1002.2
20260905144828 61 360 1.0 2.0 0.00 0.00 0.00 85 1002.1
20260905144330 61 360 1.0 3.0 0.00 0.00 0.00 85 1002.1
20260905143831 61 360 1.0 3.0 0.00 0.00 0.00 84 1002.1
20260905143330 61 360 1.0 3.0 0.00 0.00 0.00 82 1002.0
20260905142831 61 360 0.0 2.0 0.00 0.00 0.00 82 1002.0
20260905142400 61 360 1.0 3.0 0.00 0.00 0.00 79 1001.9
20260905141826 62 360 1.0 3.0 0.00 0.00 0.00 80 1001.8
20260905141333 62 360 1.0 3.0 0.00 0.00 0.00 79 1001.8
20260905140900 62 360 2.0 4.0 0.00 0.00 0.00 79 1001.7
20260905140328 62 360 2.0 4.0 0.00 0.00 0.00 78 1001.7
20260905135829 62 360 2.0 5.0 0.00 0.00 0.00 79 1001.7
20260905135329 61 360 2.0 5.0 0.00 0.00 0.00 78 1001.7
20260905134835 61 360 2.0 4.0 0.00 0.00 0.00 78 1001.7
20260905134325 61 360 2.0 6.0 0.00 0.00 0.00 79 1001.6
20260905133853 61 360 2.0 6.0 0.00 0.00 0.00 81 1001.6
20260905133332 61 360 3.0 6.0 0.00 0.00 0.00 85 1001.6
20260905132840 61 360 2.0 4.0 0.00 0.00 0.00 85 1001.6
20260905132329 60 360 1.0 3.0 0.00 0.00 0.00 85 1001.5
20260905131830 60 360 0.0 4.0 0.00 0.00 0.00 84 1001.5
20260905131330 60 360 1.0 5.0 0.00 0.00 0.00 82 1001.5
20260905130829 61 360 3.0 6.0 0.00 0.00 0.00 81 1001.5
20260905130338 61 360 2.0 6.0 0.00 0.00 0.00 81 1001.3
20260905125828 61 360 2.0 9.0 0.00 0.00 0.00 80 1001.2
20260905125329 61 360 4.0 9.0 0.00 0.00 0.00 80 1001.1
20260905124850 61 360 2.0 6.0 0.00 0.00 0.00 81 1001.0
20260905124331 61 360 2.0 4.0 0.00 0.00 0.00 83 1001.1
20260905123850 61 360 1.0 4.0 0.00 0.00 0.00 83 1001.1
20260905123329 60 360 1.0 5.0 0.00 0.00 0.00 84 1001.1
20260905122830 60 360 2.0 5.0 0.00 0.00 0.00 84 1001.0
20260905122331 59 360 1.0 4.0 0.00 0.00 0.00 83 1001.0
20260905121831 59 360 1.0 2.0 0.00 0.00 0.00 85 1001.0
20260905121348 59 360 0.0 3.0 0.00 0.00 0.00 86 1001.0
20260905120827 59 360 1.0 3.0 0.00 0.00 0.00 86 1001.0
20260905120327 59 360 1.0 6.0 0.00 0.00 0.00 85 1001.0
20260905115828 59 360 2.0 8.0 0.00 0.00 0.00 84 1000.9
20260905115335 59 360 2.0 8.0 0.00 0.00 0.00 85 1000.9
20260905114843 59 360 2.0 4.0 0.00 0.00 0.00 87 1000.8
20260905114345 59 360 1.0 4.0 0.00 0.00 0.00 85 1000.7
20260905113824 60 360 2.0 5.0 0.00 0.00 0.00 84 1000.7
20260905113352 60 360 1.0 5.0 0.00 0.00 0.00 83 1000.6
20260905112831 60 360 2.0 6.0 0.00 0.00 0.00 84 1000.6
20260905112330 60 360 3.0 6.0 0.00 0.00 0.00 85 1000.6
20260905111837 60 360 0.0 3.0 0.00 0.00 0.00 86 1000.6
20260905111324 59 360 1.0 3.0 0.00 0.00 0.00 86 1000.6
20260905110830 59 360 2.0 3.0 0.00 0.00 0.00 87 1000.6
20260905110331 59 360 0.0 4.0 0.00 0.00 0.00 88 1000.5
20260905105830 58 360 1.0 5.0 0.00 0.00 0.00 87 1000.5
20260905105330 58 360 1.0 5.0 0.00 0.00 0.00 87 1000.5
20260905104850 59 360 1.0 4.0 0.00 0.00 0.00 87 1000.4
20260905104329 59 360 2.0 4.0 0.00 0.00 0.00 89 1000.4
20260905103830 59 360 1.0 3.0 0.00 0.00 0.00 89 1000.3
20260905103351 59 360 2.0 4.0 0.00 0.00 0.00 89 1000.3
20260905102831 59 360 1.0 4.0 0.00 0.00 0.00 92 1000.3
20260905102331 58 360 2.0 5.0 0.00 0.00 0.00 92 1000.2
20260905101858 58 360 2.0 5.0 0.00 0.00 0.00 92 1000.2
20260905101324 57 360 1.0 5.0 0.00 0.00 0.00 93 1000.2
20260905100831 57 360 2.0 3.0 0.00 0.00 0.00 95 1000.3
20260905100351 56 360 0.0 3.0 0.00 0.00 0.00 95 1000.2
20260905095830 56 360 1.0 3.0 0.00 0.00 0.00 95 1000.1
20260905095351 55 360 1.0 4.0 0.00 0.00 0.00 95 1000.2
20260905094832 56 360 1.0 4.0 0.00 0.00 0.00 95 1000.1
20260905094331 56 360 2.0 4.0 0.00 0.00 0.00 96 1000.2
20260905093831 56 360 1.0 4.0 0.00 0.00 0.00 96 1000.1
20260905093332 55 360 1.0 2.0 0.00 0.00 0.00 96 1000.0
20260905092840 55 360 0.0 2.0 0.00 0.00 0.00 96 1000.0
20260905092328 55 360 1.0 3.0 0.00 0.00 0.00 96 1000.0
20260905091837 55 360 1.0 3.0 0.00 0.00 0.00 96 999.9
20260905091324 55 360 2.0 3.0 0.00 0.00 0.00 96 1000.0
20260905090832 55 360 1.0 3.0 0.00 0.00 0.00 96 999.9
20260905090331 55 360 1.0 3.0 0.00 0.00 0.00 96 999.8
20260905085831 55 360 1.0 3.0 0.00 0.00 0.00 96 999.8
20260905085331 55 360 1.0 3.0 0.00 0.00 0.00 96 999.8
20260905084831 55 360 1.0 3.0 0.00 0.00 0.00 96 999.8
20260905084332 55 360 1.0 4.0 0.00 0.00 0.00 97 999.7
20260905083831 55 360 1.0 4.0 0.00 0.00 0.00 96 999.6
20260905083331 55 360 1.0 3.0 0.00 0.00 0.00 96 999.6
20260905082827 55 360 1.0 3.0 0.00 0.00 0.00 96 999.5
20260905082335 54 360 1.0 3.0 0.00 0.00 0.00 96 999.6
20260905081829 54 360 1.0 3.0 0.00 0.00 0.00 97 999.6
20260905081325 54 360 1.0 3.0 0.00 0.00 0.00 96 999.4
20260905080826 54 360 1.0 2.0 0.00 0.00 0.00 96 999.4
20260905080326 54 360 1.0 2.0 0.00 0.00 0.00 96 999.4
20260905075848 54 360 1.0 3.0 0.00 0.00 0.00 96 999.4
20260905075327 54 360 1.0 3.0 0.00 0.00 0.00 96 999.3
20260905074827 54 360 2.0 4.0 0.00 0.00 0.00 96 999.3
20260905074326 54 360 1.0 4.0 0.00 0.00 0.00 96 999.3
20260905073827 54 360 2.0 4.0 0.00 0.00 0.00 96 999.2
20260905073328 53 360 1.0 4.0 0.00 0.00 0.00 96 999.1
20260905072829 53 360 2.0 3.0 0.00 0.00 0.00 96 999.1
20260905072330 53 360 0.0 2.0 0.00 0.00 0.00 96 999.1
20260905071851 53 360 1.0 2.0 0.00 0.00 0.00 96 999.1
20260905071351 53 360 1.0 2.0 0.00 0.00 0.00 96 999.0
20260905070830 53 360 1.0 4.0 0.00 0.00 0.00 96 999.0
20260905070330 53 360 1.0 4.0 0.00 0.00 0.00 96 998.9
20260905065830 53 360 1.0 3.0 0.00 0.00 0.00 96 998.8
20260905065331 53 360 1.0 2.0 0.00 0.00 0.00 96 998.8
20260905064830 53 360 1.0 2.0 0.00 0.00 0.00 96 998.7
20260905064336 53 360 1.0 2.0 0.00 0.00 0.00 96 998.6
20260905063824 52 360 0.0 2.0 0.00 0.00 0.00 96 998.6
20260905063331 52 360 1.0 3.0 0.00 0.00 0.00 96 998.5
20260905062831 52 284 1.0 3.0 0.00 0.00 0.00 96 998.4
20260905062351 52 285 1.0 3.0 0.00 0.00 0.00 96 998.4
20260905061830 52 284 1.0 4.0 0.00 0.00 0.00 96 998.4
20260905061329 52 286 1.0 3.0 0.00 0.00 0.00 96 998.3
20260905060830 52 286 2.0 4.0 0.00 0.00 0.00 96 998.2
20260905060349 52 286 1.0 4.0 0.00 0.00 0.00 96 998.2
20260905055830 52 286 1.0 3.0 0.00 0.00 0.00 96 998.2
20260905055331 52 286 1.0 3.0 0.00 0.00 0.00 96 998.2
20260905054830 52 286 1.0 3.0 0.00 0.00 0.00 96 998.1
20260905054332 52 286 1.0 3.0 0.00 0.00 0.00 96 998.1
20260905053852 52 286 1.0 4.0 0.00 0.00 0.00 96 998.1
20260905053352 51 286 1.0 5.0 0.00 0.00 0.00 96 998.1
20260905052837 51 286 2.0 6.0 0.00 0.00 0.00 96 998.1
20260905052325 51 286 1.0 5.0 0.00 0.00 0.00 96 998.0
20260905051832 51 286 2.0 6.0 0.00 0.00 0.00 96 998.0
20260905051338 51 286 2.0 4.0 0.00 0.00 0.00 96 997.9
20260905050826 51 286 1.0 3.0 0.00 0.00 0.00 96 997.9
20260905050333 51 286 1.0 3.0 0.00 0.00 0.00 96 997.8
20260905045859 51 286 1.0 2.0 0.00 0.00 0.00 96 997.8
20260905045325 51 286 1.0 2.0 0.00 0.00 0.00 96 997.7
20260905044832 51 286 0.0 2.0 0.00 0.00 0.00 96 997.7
20260905044337 51 286 1.0 2.0 0.00 0.00 0.00 96 997.6
20260905043824 51 286 1.0 3.0 0.00 0.00 0.00 96 997.6
20260905043331 51 286 1.0 3.0 0.00 0.00 0.00 96 997.5
20260905042831 51 286 1.0 2.0 0.00 0.00 0.00 96 997.5
20260905042331 51 286 0.0 3.0 0.00 0.00 0.00 96 997.6
20260905041839 51 286 1.0 3.0 0.00 0.00 0.00 96 997.5
20260905041325 51 286 2.0 3.0 0.00 0.00 0.00 96 997.4
20260905040830 51 286 2.0 3.0 0.00 0.00 0.00 96 997.3
20260905040332 50 286 2.0 4.0 0.00 0.00 0.00 96 997.3
20260905035852 50 286 2.0 3.0 0.00 0.00 0.00 96 997.3
20260905035347 50 286 1.0 3.0 0.00 0.00 0.00 96 997.3
20260905034827 50 286 1.0 3.0 0.00 0.00 0.00 96 997.3
20260905034327 51 286 1.0 2.0 0.00 0.00 0.00 96 997.2
20260905033827 51 286 0.0 2.0 0.00 0.00 0.00 96 997.0
20260905033347 51 286 1.0 3.0 0.00 0.00 0.00 96 997.0
20260905032826 51 286 2.0 3.0 0.00 0.00 0.00 96 996.9
20260905032325 51 286 1.0 3.0 0.00 0.00 0.00 96 996.9
20260905031825 51 286 1.0 3.0 0.00 0.00 0.00 96 996.9
20260905031326 51 286 1.0 2.0 0.00 0.00 0.00 96 996.9
20260905030832 51 286 1.0 2.0 0.00 0.00 0.00 96 996.9
20260905030353 51 286 0.0 3.0 0.00 0.00 0.00 96 996.9
20260905025852 51 286 1.0 3.0 0.00 0.00 0.00 96 996.9
20260905025340 51 286 1.0 3.0 0.00 0.00 0.00 96 996.8
20260905024848 51 286 1.0 3.0 0.00 0.00 0.00 96 996.8
20260905024328 51 286 1.0 3.0 0.00 0.00 0.00 96 996.8
20260905023836 51 286 0.0 4.0 0.00 0.00 0.00 96 996.8
20260905023345 51 286 1.0 4.0 0.00 0.00 0.00 96 996.8
20260905022832 51 287 1.0 4.0 0.00 0.00 0.00 96 996.8
20260905022339 51 288 1.0 4.0 0.00 0.00 0.00 96 996.8
20260905021828 52 290 2.0 4.0 0.00 0.00 0.00 96 996.7
20260905021328 51 290 1.0 4.0 0.00 0.00 0.00 96 996.7
20260905020837 52 314 1.0 2.0 0.00 0.00 0.00 96 996.7
20260905020327 51 314 1.0 4.0 0.00 0.00 0.00 96 996.6
20260905015849 52 314 1.0 3.0 0.00 0.00 0.00 96 996.5
20260905015330 52 314 1.0 3.0 0.00 0.00 0.00 96 996.5
20260905014830 52 314 1.0 3.0 0.00 0.00 0.00 96 996.5
20260905014331 52 314 2.0 3.0 0.00 0.00 0.00 96 996.5
20260905013831 52 314 1.0 3.0 0.00 0.00 0.00 96 996.4
20260905013352 52 314 1.0 3.0 0.00 0.00 0.00 96 996.4
20260905012836 52 314 1.0 3.0 0.00 0.00 0.00 96 996.4
20260905012325 52 314 1.0 3.0 0.00 0.00 0.00 96 996.3
20260905011830 52 336 1.0 3.0 0.00 0.00 0.00 96 996.3
20260905011331 52 336 1.0 2.0 0.00 0.00 0.00 96 996.3
20260905010830 52 336 1.0 1.0 0.00 0.00 0.00 96 996.3
20260905010330 52 336 0.0 3.0 0.00 0.00 0.00 96 996.3
20260905005830 52 336 1.0 4.0 0.00 0.00 0.00 96 996.2